Theta_e
335 333 332 333 332 332 332 332 332 332 332 333 333 333 333 333 333 333 334 336 337 338 337 336 337 337 338 337 336 334 332 333 334 334 335 336 336 334 332 333 336 336 334 333 333 333 331 329 329 329 329 330 331 329 334 340 338 338 336 334 336 338
332 330 327 327 328 329 331 331 331 332 333 333 333 333 333 333 333 333 334 336 336 336 336 336 336 336 336 336 336 334 331 332 332 332 333 334 334 334 333 332 333 334 334 333 333 333 334 334 333 332 330 330 330 330 335 340 339 339 336 335 335 338
330 328 326 325 327 328 329 329 329 331 331 331 331 331 332 333 333 334 333 334 334 335 335 335 336 335 335 336 335 335 334 333 331 331 332 333 334 334 334 334 332 332 332 333 333 334 335 337 336 336 335 332 331 334 338 339 339 339 338 337 336 339
329 328 326 326 327 328 328 327 328 329 329 330 330 330 331 332 332 333 333 333 333 333 333 334 334 334 336 336 334 336 337 335 334 334 334 333 334 336 336 335 335 334 333 334 336 336 336 336 336 337 337 337 336 337 338 338 339 339 338 338 338 339
328 328 326 326 327 328 328 327 327 326 325 327 329 329 329 330 330 331 331 331 332 332 332 332 333 332 335 335 333 335 336 335 336 337 337 336 336 338 337 335 337 337 337 337 337 337 336 336 335 335 337 339 340 339 337 338 338 338 339 338 338 339
328 327 327 326 326 327 326 326 325 324 324 324 325 326 327 328 329 329 330 329 329 330 330 331 332 331 332 333 333 334 334 334 334 335 335 335 336 336 335 334 335 336 336 336 336 335 335 335 335 334 335 338 340 340 337 337 337 337 337 337 338 339
327 327 326 326 325 325 324 323 323 322 322 321 323 324 325 327 328 328 328 328 328 328 329 329 330 330 331 331 332 333 334 334 333 333 333 333 333 333 333 332 332 333 333 334 333 334 334 335 335 335 334 335 337 338 336 335 336 336 336 336 337 339
327 326 325 325 324 324 323 322 321 321 321 321 322 323 323 325 326 326 326 326 326 327 328 328 329 329 329 329 330 332 333 334 334 333 333 332 332 333 333 333 333 333 333 334 333 333 334 335 335 335 335 334 334 334 334 334 335 335 336 336 337 338
327 326 325 324 323 323 323 322 321 322 322 322 321 321 322 323 324 325 325 324 325 327 326 326 327 328 328 328 328 329 330 333 334 334 333 332 332 334 335 334 333 334 333 334 333 333 334 334 335 335 335 334 333 333 333 333 333 335 336 336 338 337
327 326 325 324 324 323 323 322 323 323 323 323 322 322 322 322 323 324 323 323 324 325 325 325 326 326 327 327 326 327 329 330 332 334 334 332 333 334 335 334 334 333 333 333 333 334 334 334 333 333 335 335 334 334 334 334 333 334 335 337 340 338
327 326 325 325 324 324 324 323 323 323 323 323 323 322 323 323 324 323 322 322 322 322 323 324 325 325 325 325 325 326 327 328 330 332 333 333 333 333 334 335 335 334 332 333 334 334 334 334 333 333 334 334 333 334 334 334 333 334 334 336 340 339
327 327 325 325 325 324 324 323 322 323 324 324 323 322 323 323 323 323 322 321 321 321 322 322 323 323 324 324 325 326 326 327 329 330 332 333 333 334 334 333 335 336 334 333 334 334 334 334 335 335 335 334 334 335 334 334 334 334 334 334 336 337
327 327 326 325 325 325 324 323 323 323 323 324 324 323 322 322 322 322 322 321 321 321 321 321 321 322 323 323 324 325 326 327 329 330 331 332 332 334 334 332 333 335 335 334 335 334 334 335 335 335 335 335 335 335 334 334 335 334 334 334 334 336
326 325 325 325 325 325 325 324 324 324 323 323 323 323 323 322 322 321 321 321 321 320 321 321 321 321 322 322 323 325 326 327 329 329 330 331 332 333 333 333 333 334 334 335 336 335 335 336 336 335 335 335 335 335 335 335 336 335 334 334 333 334
326 325 325 325 325 325 325 325 324 324 323 323 323 322 322 322 321 321 320 321 321 321 322 322 321 321 321 322 323 325 326 328 328 328 329 330 330 331 332 333 333 334 334 335 335 335 335 335 335 335 336 336 335 335 336 336 336 336 335 335 333 333
325 326 325 325 325 325 326 325 324 324 323 323 322 322 322 321 321 321 320 321 321 321 322 322 321 321 321 322 324 326 327 327 327 328 328 329 329 330 331 331 331 332 333 334 334 334 335 334 334 335 337 336 334 335 336 336 335 336 335 335 334 334
326 326 325 325 326 326 326 326 325 324 323 323 322 322 322 321 320 320 320 320 321 321 322 323 322 321 322 322 325 327 327 326 326 327 328 329 329 329 329 330 330 331 332 333 333 334 334 333 334 335 335 335 334 334 335 334 335 336 335 335 334 334
326 326 325 325 326 326 326 326 325 324 323 323 322 322 321 321 320 320 320 320 320 321 322 323 322 322 322 323 325 327 326 325 326 326 327 328 328 328 328 329 329 330 330 331 332 334 334 333 334 335 335 335 334 335 336 334 335 336 334 334 334 333
326 325 326 326 326 326 326 326 325 325 324 323 322 322 321 320 320 320 320 319 319 320 321 323 323 323 323 324 325 326 325 324 324 325 326 328 328 328 328 328 329 329 330 331 331 333 334 334 334 335 336 336 335 335 335 335 336 336 334 334 334 334
325 325 326 325 326 326 325 325 326 326 325 323 322 322 321 320 320 319 319 319 319 320 321 322 323 323 324 325 325 325 325 324 324 325 326 327 327 327 327 327 328 328 328 329 330 332 333 333 335 335 335 335 336 335 333 333 335 334 334 335 334 334
326 326 326 326 326 326 326 325 326 326 326 324 323 322 321 320 320 320 319 318 318 319 320 321 323 323 324 325 325 325 325 324 325 325 326 326 326 327 326 326 327 327 328 329 329 331 332 333 334 335 335 334 334 334 332 331 333 334 334 335 335 334
327 327 327 328 328 327 327 327 327 327 326 325 324 323 322 321 320 319 319 318 318 319 320 320 322 323 324 325 324 324 324 323 325 325 325 326 325 326 326 326 326 326 327 328 328 330 331 332 333 333 334 335 335 334 331 330 332 334 335 335 334 335
328 327 327 328 328 328 327 327 327 327 327 326 324 323 323 322 321 320 319 319 317 318 319 320 321 322 323 324 324 323 323 323 324 324 324 325 324 324 324 325 325 325 326 327 328 328 329 331 332 332 334 335 337 336 334 332 332 333 335 335 333 335
328 327 327 327 328 328 327 327 327 327 327 326 326 325 324 323 322 321 320 319 317 317 319 319 320 322 322 323 323 323 323 323 323 323 323 323 322 322 322 323 324 324 325 326 327 327 328 330 330 331 333 334 335 337 336 334 332 332 333 335 335 335
328 328 328 327 328 328 327 328 328 328 328 327 327 326 325 324 322 321 320 319 318 317 318 319 320 321 322 322 323 323 323 323 323 322 322 322 322 321 321 322 323 324 324 325 326 326 327 328 328 329 330 332 334 335 335 333 333 333 332 333 334 334
329 329 329 328 328 328 328 328 328 328 329 328 327 326 326 325 323 322 321 319 318 317 317 319 320 321 322 322 322 323 322 323 323 322 321 321 321 321 321 322 323 324 324 325 325 325 327 326 327 328 329 330 331 332 332 332 333 335 333 332 332 333
330 330 329 328 329 329 329 329 329 329 329 329 327 326 327 326 323 322 322 320 319 318 317 319 320 321 322 322 322 322 322 322 322 322 321 321 321 320 321 321 322 323 324 324 324 325 325 325 326 328 327 328 330 330 330 331 332 333 333 333 332 331
331 331 330 329 329 330 329 330 330 330 329 329 328 326 326 326 324 323 322 321 319 318 318 318 319 321 322 322 323 322 322 322 322 322 321 321 320 320 320 320 321 322 323 323 323 324 324 324 325 326 326 326 328 329 329 330 330 330 332 334 334 332
332 332 330 329 330 330 330 330 330 330 330 329 328 327 326 326 325 324 323 322 320 319 318 318 318 320 321 322 323 322 322 322 321 321 321 320 320 320 319 320 320 321 321 322 322 322 323 323 324 324 324 325 326 327 328 329 329 329 330 332 333 334
332 332 330 329 331 331 330 331 330 330 331 330 328 328 327 326 326 326 324 322 321 319 318 318 318 319 319 320 322 322 322 322 321 321 320 320 320 319 319 319 319 320 320 321 321 321 321 321 322 322 322 323 325 326 327 328 329 329 329 330 331 332
331 331 331 331 332 332 332 332 331 330 331 331 329 329 328 327 326 326 325 323 322 320 318 318 317 317 318 318 320 322 322 321 321 321 320 319 319 319 319 318 318 319 319 319 320 320 320 320 320 321 321 322 323 323 324 327 328 328 329 330 330 331
333 333 333 333 334 334 333 333 332 332 331 330 331 330 328 328 326 325 325 324 323 321 319 318 317 317 317 317 319 320 321 321 321 320 319 319 318 318 318 318 318 318 318 318 319 318 319 319 319 319 319 320 320 321 322 323 324 326 328 328 329 330
335 335 335 335 335 335 334 334 333 333 332 331 331 330 329 328 326 325 325 324 323 322 321 319 318 317 317 317 318 319 320 321 320 320 319 318 318 318 318 317 317 318 317 318 318 318 318 318 318 318 318 318 319 319 320 321 321 323 325 326 328 330
334 335 336 335 335 335 335 334 334 333 332 331 331 331 330 329 328 326 326 325 324 323 322 320 318 317 317 317 318 318 319 320 320 319 319 318 318 318 317 317 317 317 317 317 317 317 318 318 317 318 318 317 318 319 319 319 320 321 322 324 326 328
333 334 334 335 335 335 334 333 334 332 331 331 331 331 331 330 329 327 326 326 325 324 323 321 319 318 317 317 318 318 319 320 320 319 319 318 318 318 317 316 317 318 318 318 318 318 318 318 318 318 318 318 318 318 318 318 319 320 320 322 323 325
331 332 333 334 334 334 334 333 333 332 332 332 332 332 331 330 329 328 327 326 325 324 323 322 320 318 317 317 317 317 318 319 319 319 319 319 318 318 317 317 317 317 317 317 317 318 318 318 319 319 318 318 318 318 318 318 318 319 319 321 321 322
328 329 331 333 333 333 333 333 333 333 333 333 333 332 330 329 329 329 329 328 326 325 323 322 321 319 318 317 317 317 317 318 319 319 319 319 319 319 318 318 318 318 318 317 316 317 318 318 318 318 318 318 318 318 317 318 318 318 319 319 320 321
Wind_Speed
6 6 5 4 5 6 7 6 7 8 10 10 10 10 11 11 11 11 11 11 9 7 7 5 3 2 3 3 4 6 6 6 6 7 6 5 5 4 3 4 5 6 7 6 6 6 6 6 6 6 6 6 5 4 2 4 5 4 5 6 7 9
7 7 7 7 6 7 8 6 7 7 8 9 9 9 9 9 9 9 10 10 10 8 8 5 3 2 4 4 3 5 6 6 6 6 6 6 6 4 3 3 3 5 7 6 6 6 6 6 7 7 7 7 6 4 5 7 6 4 5 6 7 8
9 8 8 9 8 8 9 8 8 8 7 8 8 8 8 8 8 9 10 10 11 10 9 7 6 5 5 5 4 6 7 6 6 5 5 5 5 4 3 3 2 3 5 5 6 6 6 7 9 9 7 7 6 5 9 10 8 6 5 5 5 7
9 9 8 9 9 9 10 10 10 10 9 8 9 9 9 9 9 11 11 11 12 11 11 10 10 10 7 7 6 6 7 7 6 5 5 5 5 4 4 3 2 2 3 4 6 6 7 9 11 12 10 8 7 8 11 12 10 8 6 6 5 7
10 10 9 9 10 10 10 10 11 11 11 10 10 10 9 9 10 11 11 12 13 12 12 10 11 13 9 8 9 7 7 7 8 6 5 6 6 6 6 4 3 3 3 4 6 8 9 11 11 12 11 10 9 11 13 13 11 8 8 7 7 8
10 10 10 9 10 10 10 10 11 12 12 12 12 11 10 10 11 11 11 13 13 13 12 11 12 13 11 9 10 9 8 6 7 8 7 7 6 6 7 6 5 5 4 5 6 8 8 9 9 9 11 11 12 14 14 14 11 9 9 9 9 9
8 9 10 9 9 10 10 11 12 12 13 14 13 12 12 11 11 11 11 13 14 14 13 12 13 13 13 11 10 10 9 8 7 8 7 7 6 6 7 5 5 5 5 6 7 7 7 8 8 8 10 10 12 14 12 13 12 11 11 11 12 11
8 8 9 9 9 9 10 11 12 12 13 15 14 13 13 12 11 11 12 13 14 15 14 13 14 13 13 13 11 11 11 10 8 8 6 6 6 7 8 7 6 6 5 6 7 8 7 8 8 9 11 12 15 14 11 12 10 11 13 12 11 11
8 8 8 8 9 9 9 10 12 13 13 14 15 15 13 12 12 11 13 15 13 14 14 13 15 14 14 15 13 11 11 10 8 8 6 5 7 8 8 8 6 7 7 7 7 7 7 6 6 8 11 14 19 14 9 10 8 9 13 12 10 10
7 8 7 8 8 8 9 10 11 12 12 13 15 15 14 12 12 12 13 13 12 14 14 13 14 14 14 14 14 13 11 9 9 8 6 5 5 7 8 7 6 7 8 8 8 8 7 6 6 7 9 13 18 14 3 6 6 9 10 10 10 9
7 7 7 7 7 7 9 10 11 11 11 12 13 14 14 13 11 12 11 11 12 13 13 13 13 13 14 14 15 17 13 9 10 10 10 8 5 7 8 6 6 7 7 8 8 8 7 7 8 7 10 15 15 11 7 9 7 6 6 7 9 9
6 6 6 7 7 7 8 9 11 11 11 11 12 13 13 13 11 11 11 12 13 13 12 13 13 12 13 13 14 16 14 11 11 10 12 12 9 9 8 5 5 7 7 7 8 7 6 6 8 9 11 14 11 8 8 8 7 6 5 6 9 10
5 5 6 6 6 7 8 9 10 11 12 11 11 12 13 13 12 11 12 12 12 13 14 13 13 12 12 13 13 13 14 13 12 12 13 13 12 11 10 6 5 8 7 6 8 7 6 7 8 10 9 10 9 7 5 3 3 5 4 3 5 9
4 4 5 5 6 6 7 8 9 11 12 13 12 11 12 13 12 12 12 11 12 13 14 14 13 12 11 11 12 12 13 12 14 14 13 13 13 13 11 8 7 7 7 6 7 7 7 7 7 7 7 7 7 6 6 4 2 6 4 2 3 7
4 3 4 4 4 5 6 7 8 9 11 12 13 12 12 13 13 13 12 12 13 13 13 13 12 12 11 11 12 12 11 11 12 13 13 13 13 12 11 11 11 10 9 8 8 7 7 7 7 6 6 6 6 5 4 4 4 6 5 3 4 8
4 3 2 2 3 4 5 5 6 9 10 8 10 12 12 13 14 14 13 13 14 13 13 13 12 12 11 11 12 12 12 11 10 12 14 14 13 11 11 12 13 13 12 12 11 9 7 6 6 6 5 6 6 3 0 3 6 7 6 4 6 9
3 2 1 1 2 3 3 5 5 7 10 7 9 12 12 13 14 14 13 13 13 13 12 11 12 12 10 10 12 11 12 12 11 13 14 14 13 11 11 13 14 14 13 14 13 12 10 7 6 6 8 8 7 5 2 2 5 9 7 5 6 8
3 1 0 1 2 3 3 5 5 5 8 9 8 10 11 12 13 13 14 13 11 11 11 11 11 11 10 10 10 10 11 11 12 13 13 14 14 12 13 14 15 14 13 14 14 13 12 9 8 8 9 9 7 5 3 2 5 10 8 5 4 6
3 2 1 2 3 3 4 4 5 5 7 7 6 7 8 10 12 14 14 12 10 11 12 12 11 11 12 11 9 10 12 12 12 11 12 13 14 13 14 15 15 14 15 14 13 12 12 11 9 9 10 10 9 7 4 4 6 7 5 4 3 3
4 3 2 3 4 4 5 6 7 5 5 5 6 6 7 10 11 12 13 12 11 11 11 11 11 11 12 11 10 11 12 12 12 12 14 14 14 14 14 15 15 14 15 14 13 12 11 12 11 11 10 9 10 8 3 2 3 1 2 4 4 3
5 4 3 4 5 5 6 7 7 5 5 7 7 7 7 10 10 9 12 13 11 10 10 10 10 10 10 10 10 11 13 12 12 14 15 14 15 14 13 15 16 15 14 14 14 12 13 13 11 10 7 7 8 3 3 2 2 3 1 1 3 3
6 7 5 5 5 4 6 7 6 6 7 6 5 6 7 7 7 8 11 12 11 10 9 10 10 9 9 9 10 12 13 13 13 14 14 14 15 15 14 16 18 17 16 15 14 14 15 13 9 10 8 7 5 5 6 2 5 5 3 2 2 3
8 9 6 6 5 3 6 7 5 6 7 5 4 4 6 6 5 8 10 11 11 11 9 9 11 9 8 9 10 12 13 13 12 13 13 13 14 16 16 17 17 18 18 17 15 15 16 12 10 13 10 4 2 3 4 5 7 5 3 3 2 3
10 10 9 8 6 3 6 7 5 6 6 5 4 4 6 7 7 8 10 9 11 12 10 9 11 11 9 9 10 11 12 13 13 13 13 13 14 16 16 16 17 17 19 18 16 16 16 14 14 11 6 3 4 1 2 3 5 4 3 3 1 3
11 12 10 8 7 6 6 7 6 8 8 6 5 4 4 6 6 7 8 9 10 12 11 9 10 10 10 9 10 10 11 12 12 12 13 14 14 16 16 16 17 18 19 18 17 17 15 17 16 10 6 3 3 2 2 3 4 2 4 3 1 2
12 13 12 9 7 6 6 7 7 8 7 7 6 4 2 2 4 6 8 8 9 10 11 10 9 9 9 9 9 10 10 10 11 11 12 13 14 16 17 17 17 17 17 18 18 16 16 19 17 13 12 8 4 4 3 5 3 1 2 2 2 3
12 13 13 11 8 7 8 10 9 7 7 7 5 2 2 1 1 4 6 7 7 9 10 10 9 8 8 10 9 9 9 9 10 10 11 12 13 15 16 16 16 16 16 17 17 15 15 18 16 15 16 14 10 9 7 5 3 1 2 1 2 4
11 12 13 12 10 10 11 11 8 7 7 8 6 3 3 3 1 1 3 5 6 8 8 8 9 9 8 9 9 9 9 9 9 10 11 11 12 13 14 15 15 15 15 15 16 15 15 16 15 15 18 17 15 13 10 6 3 2 2 2 3 3
12 12 13 12 11 12 14 12 9 8 8 7 6 4 4 4 2 1 2 4 5 6 5 6 8 8 8 7 7 8 8 9 10 10 11 12 12 12 13 14 15 15 14 14 14 14 15 15 15 14 16 17 16 15 12 9 6 6 3 3 2 2
14 13 14 13 12 13 14 13 11 10 9 8 7 5 3 3 2 2 1 3 4 5 4 5 7 7 8 7 6 7 7 8 9 10 10 11 12 12 13 13 14 15 14 13 14 14 14 15 15 14 14 15 16 15 12 9 8 9 5 3 3 3
16 15 14 13 14 14 13 13 12 11 9 9 8 6 4 4 4 4 2 2 4 4 5 5 5 6 8 9 7 6 6 7 8 9 10 11 12 12 12 13 14 15 14 14 15 15 14 15 15 15 14 14 14 14 13 10 10 11 7 4 5 4
14 15 14 13 14 13 12 13 12 11 10 10 8 5 5 5 4 4 3 2 3 3 5 5 4 7 9 10 8 6 6 7 7 8 9 10 11 12 12 13 13 14 14 14 14 15 15 16 16 15 14 14 13 12 14 14 14 13 9 8 7 4
11 12 13 12 12 13 13 13 12 10 10 9 8 6 5 5 5 4 4 2 3 3 6 5 4 7 9 9 7 7 7 6 7 7 8 9 10 11 11 12 12 12 13 13 13 14 14 15 15 14 14 14 13 12 12 13 14 14 13 11 8 5
8 9 11 11 11 12 12 12 11 10 9 9 9 8 6 5 4 4 4 3 3 3 5 6 6 8 8 7 7 7 6 6 7 7 8 8 9 10 10 11 11 10 11 11 11 11 12 12 13 14 14 14 14 14 13 11 12 13 13 13 11 7
4 5 9 11 10 10 9 10 11 11 10 10 9 7 5 4 4 3 3 3 3 3 4 4 5 6 6 7 6 5 5 6 6 7 7 7 8 8 8 9 11 10 10 10 10 10 11 11 11 12 12 13 14 15 14 13 13 12 11 12 13 12
3 2 6 8 8 8 8 9 10 10 10 9 7 6 5 4 4 4 3 3 2 3 4 4 4 3 4 7 7 3 4 5 5 6 6 7 8 8 7 8 9 10 10 11 12 12 12 12 12 11 11 12 12 14 14 14 14 13 13 13 12 13
3 2 3 5 5 6 7 8 8 9 9 8 7 7 6 5 5 5 5 4 3 3 4 5 5 2 5 7 7 2 3 4 4 5 6 6 8 8 7 8 8 8 9 9 10 11 12 13 12 11 12 12 12 13 14 14 14 14 14 15 14 12
Wind_Direction
74 67 57 49 50 21 4 15 23 9 12 21 19 20 15 13 7 354 354 349 343 329 320 314 304 293 303 315 316 322 320 315 309 302 303 299 296 290 281 284 287 294 299 308 307 301 295 287 282 273 266 261 267 277 276 242 237 236 223 204 197 187
62 57 51 43 45 27 14 19 22 7 8 17 10 13 13 11 8 358 352 348 349 343 332 316 305 308 303 315 304 313 329 324 323 323 318 313 312 308 300 296 285 282 286 297 302 302 302 301 296 285 274 263 259 266 257 241 239 243 229 206 198 189
56 55 52 46 45 33 29 30 28 20 16 15 8 8 11 13 14 6 360 353 354 350 345 340 333 325 314 321 288 297 324 323 321 323 318 320 321 327 325 310 303 282 278 288 295 301 301 291 284 281 270 258 255 249 244 237 237 247 224 201 198 176
56 56 55 50 46 39 36 33 28 23 18 15 12 10 10 16 15 11 8 360 360 358 353 351 345 338 326 325 316 303 305 306 309 303 309 316 305 308 314 299 301 291 284 291 287 282 272 267 270 270 262 256 252 240 244 242 235 241 221 201 204 182
57 57 56 53 49 41 38 35 28 23 20 17 14 11 12 14 10 9 10 4 4 6 1 353 350 348 339 328 335 333 312 304 304 297 292 291 284 283 286 275 269 270 270 276 268 261 259 266 272 267 258 253 251 242 241 241 233 234 233 216 209 199
58 57 57 56 52 45 39 35 28 24 20 16 13 11 13 11 7 6 10 9 6 4 1 358 354 353 348 341 343 345 332 317 308 305 293 286 283 273 276 267 253 249 251 269 270 266 269 275 278 272 259 247 251 251 236 236 235 226 232 232 226 212
64 59 58 57 54 49 42 38 32 26 20 16 15 13 10 6 4 6 9 12 9 1 359 359 357 353 350 350 349 348 340 331 320 306 293 293 295 280 285 276 255 259 258 268 270 271 277 281 282 277 269 258 260 258 241 241 235 221 230 229 224 216
70 63 59 58 56 49 42 39 34 30 26 20 18 12 4 3 2 5 7 8 9 2 360 358 355 352 348 349 350 348 341 336 332 320 309 302 301 293 293 286 279 290 287 279 272 272 280 285 288 283 285 285 273 260 243 250 235 212 227 222 208 208
74 69 63 61 58 51 43 39 34 31 29 23 19 14 7 8 4 3 6 5 6 1 0 357 353 353 347 347 350 345 339 337 333 330 332 312 296 293 291 288 293 302 304 305 297 291 288 286 294 292 291 284 275 266 221 219 223 206 218 217 205 206
80 74 69 64 57 51 45 37 34 29 28 25 19 18 15 13 8 5 4 3 4 359 358 355 352 354 347 345 345 337 335 340 339 338 346 336 295 288 293 290 294 303 304 310 311 307 298 286 286 290 286 274 274 279 221 164 223 231 221 218 213 215
79 74 68 61 52 45 41 36 34 27 24 26 20 19 18 14 12 7 2 7 9 358 354 353 352 353 344 340 339 336 339 347 345 342 341 340 320 302 296 276 276 295 298 296 299 301 299 293 291 291 280 270 273 294 343 29 359 292 274 259 238 232
78 73 64 54 46 37 35 32 31 25 20 23 21 19 18 13 12 7 5 14 13 1 354 351 349 349 342 335 333 339 345 349 349 344 337 333 328 317 305 286 268 277 290 293 290 293 293 289 286 284 279 274 282 313 341 6 358 335 323 287 253 243
86 77 68 54 43 35 33 33 31 25 17 18 19 18 18 14 11 11 5 10 12 0 355 353 348 345 342 335 331 337 341 347 353 346 338 332 330 326 317 322 303 277 285 299 295 295 292 286 279 278 286 292 296 319 348 14 307 312 328 303 246 236
99 85 75 59 45 38 34 34 31 25 18 17 17 14 18 14 12 14 5 11 18 1 353 354 349 345 342 332 327 333 337 346 351 345 342 337 336 339 333 336 339 310 300 307 304 300 292 284 278 282 301 310 305 314 350 27 295 280 285 288 237 221
121 103 84 68 51 42 37 39 34 24 15 15 18 15 17 15 13 13 6 13 18 3 356 356 350 346 340 328 328 336 345 350 348 345 348 344 338 342 340 340 347 339 328 322 312 298 288 281 285 306 319 305 304 315 351 17 320 276 253 254 230 218
147 132 101 84 57 37 28 31 26 16 5 8 25 19 13 17 18 14 5 11 16 5 358 356 352 350 340 333 338 345 350 352 349 349 351 349 345 342 341 345 347 346 339 330 320 307 299 299 301 308 306 292 292 290 69 24 316 275 246 230 220 217
163 156 132 95 37 9 358 1 4 8 357 1 36 26 15 20 22 17 8 9 13 4 357 357 356 355 349 343 347 350 349 353 356 355 353 353 353 349 348 350 346 344 340 333 328 324 321 322 313 297 288 286 285 273 259 352 290 264 246 214 211 216
176 181 197 313 329 324 325 347 2 0 349 359 29 28 21 21 21 21 12 7 8 1 358 1 357 350 349 347 347 348 349 357 359 354 355 358 357 355 355 354 347 342 339 333 326 323 326 324 314 306 296 290 285 263 247 266 255 249 245 224 220 223
194 213 257 300 294 302 309 319 334 344 351 2 13 17 31 31 24 22 13 4 6 3 359 2 358 348 348 349 351 353 354 360 360 355 358 1 359 357 356 353 348 344 340 336 328 322 326 326 319 313 301 293 283 254 230 245 250 252 261 264 267 254
200 225 251 283 288 298 308 303 305 331 350 342 343 5 46 42 22 20 16 6 7 7 2 358 356 354 354 354 356 357 358 359 357 2 7 3 357 355 354 352 347 345 342 339 337 333 335 333 324 316 307 291 276 258 245 240 234 278 309 292 296 296
206 220 241 273 289 305 313 308 308 326 330 323 337 356 28 33 19 23 23 12 8 8 2 353 352 357 1 1 360 358 360 359 356 4 9 1 356 356 357 356 351 348 348 345 344 345 346 340 328 325 323 300 288 252 175 193 133 94 92 288 298 287
216 220 234 265 269 296 307 305 311 323 325 329 344 340 353 15 25 34 26 15 10 8 3 354 348 355 6 10 7 1 1 1 360 5 6 1 2 2 2 2 358 356 356 352 351 355 357 353 341 334 327 302 318 80 104 79 68 68 80 71 312 267
222 226 231 256 258 279 293 288 294 311 322 331 338 327 328 346 23 35 26 18 9 4 9 360 349 355 11 15 9 1 0 1 2 4 1 1 6 5 2 2 1 359 358 356 356 358 0 2 351 334 324 301 311 72 78 43 48 49 58 73 336 272
221 229 229 240 242 236 269 277 282 289 292 293 301 310 323 345 19 29 22 22 16 10 11 4 354 355 5 12 8 1 360 1 4 5 2 2 6 5 1 360 1 2 0 358 354 351 356 5 3 347 334 318 299 305 79 14 12 33 39 52 340 271
221 233 235 234 228 215 241 261 265 272 272 269 273 272 305 347 16 30 27 26 26 17 9 8 1 353 359 6 4 0 1 5 8 8 8 5 3 2 360 0 5 5 1 359 352 346 353 3 6 10 15 352 308 342 58 324 315 24 25 6 319 286
218 234 237 234 227 213 234 245 238 249 261 268 274 266 263 332 5 26 31 27 32 26 16 13 4 356 360 360 358 359 360 5 8 8 9 6 2 1 360 2 5 2 358 358 355 351 354 358 2 14 20 13 350 332 319 310 307 358 5 341 341 349
213 231 233 229 222 204 218 235 232 232 242 250 256 250 222 215 357 16 21 22 35 33 22 13 3 360 4 357 356 358 357 360 3 0 1 3 2 359 358 358 358 358 356 355 355 355 353 353 357 5 8 6 1 351 334 329 335 330 305 283 335 343
211 223 225 222 216 206 215 230 234 234 238 245 247 236 221 220 247 17 13 13 35 36 23 17 10 2 0 358 356 355 355 354 355 354 354 0 2 356 353 353 352 353 353 352 354 354 351 351 353 357 0 359 358 2 360 353 358 356 310 290 313 323
213 218 224 225 220 214 218 223 230 237 241 249 247 232 219 218 226 275 360 2 25 32 23 28 26 10 358 359 355 353 351 347 351 354 352 359 360 352 349 350 349 348 347 350 351 351 352 352 352 356 359 354 350 358 4 1 8 10 333 291 316 325
218 220 227 229 222 219 220 221 230 236 239 245 237 221 221 217 218 242 312 348 359 17 36 49 40 24 8 358 347 348 348 343 348 352 353 357 354 349 350 347 345 344 344 350 352 354 359 356 353 358 1 358 353 355 356 354 5 5 338 292 309 314
222 221 227 229 223 220 221 225 231 237 243 251 239 213 220 227 226 240 253 316 328 357 32 31 29 37 21 1 348 346 349 345 346 352 354 353 349 348 350 347 345 347 350 357 358 0 3 358 356 359 1 360 357 351 344 342 353 354 343 322 320 310
220 220 223 226 224 221 224 230 235 241 248 256 252 229 222 227 236 252 250 277 307 334 5 7 38 51 24 0 351 347 344 342 345 351 350 349 349 348 349 348 347 351 355 357 359 1 2 359 357 0 359 355 353 347 340 339 341 340 339 333 321 306
221 222 222 226 229 225 227 234 239 246 252 255 256 247 234 229 239 257 259 274 287 311 344 357 47 47 16 355 355 353 342 335 337 341 345 348 347 344 350 352 348 352 355 354 357 358 357 357 357 357 358 353 349 341 332 333 334 334 336 334 325 318
233 227 224 230 235 232 232 237 241 247 251 250 250 245 235 230 233 244 255 271 286 296 327 355 39 43 14 353 356 356 340 332 332 335 342 348 345 345 354 352 346 348 349 347 349 350 349 353 352 352 355 351 345 339 333 334 334 331 333 332 329 328
256 234 230 236 238 239 239 242 245 247 246 239 240 239 228 228 234 235 250 269 277 268 286 334 15 33 11 344 346 6 350 330 331 333 336 340 338 342 348 345 343 346 345 342 341 342 344 345 342 346 350 345 342 341 340 339 336 331 329 326 323 324
274 232 232 235 235 243 242 241 245 247 246 237 233 236 226 230 239 229 238 259 259 252 267 300 323 7 23 338 324 3 4 326 325 327 326 331 331 332 334 333 337 341 341 341 341 343 341 336 335 341 343 339 336 336 335 335 336 335 332 326 320 321
279 266 249 238 234 248 244 242 244 240 243 241 234 235 229 232 239 231 232 238 240 243 250 273 295 346 31 345 316 349 23 319 310 314 311 319 322 322 324 322 325 329 329 333 336 336 333 330 331 334 335 334 332 331 332 334 336 335 332 329 324 318